CHURANOV Weather Reports


time (UTC)temp
C
wind
direction
speed
KPH
gust
KPH
rain 1hr
cm
rain 24hr
cm
rain mn
cm
humidity
%
barometer
mb
20260906021712 7 250 11.3 0.0 0.00 0.00 0.00 81
20260906012025 7 250 8.0 0.0 0.00 0.00 0.00 81
20260906001712 7 240 8.0 0.0 0.00 0.00 0.00 87
20260905231712 8 250 11.3 0.0 0.00 0.00 0.00 76
20260905222114 10 260 11.3 0.0 0.00 0.00 0.00 71
20260905211711 11 260 8.0 0.0 0.00 0.00 0.00 71
20260905201713 12 260 11.3 0.0 0.00 0.00 0.00 71
20260905192024 12 260 14.5 0.0 0.00 0.00 0.00 66
20260905181712 12 260 14.5 35.4 0.00 0.00 0.00 71
20260905171712 13 260 19.3 38.6 0.00 0.00 0.00 67
20260905162116 15 250 19.3 35.4 0.00 0.00 0.00 67
20260905151637 16 240 22.5 41.8 0.00 0.00 0.00 63
20260905141637 15 240 29.0 49.9 0.00 0.00 0.00 72
20260905131912 15 250 19.3 41.8 0.00 0.00 0.00 67
20260905121838 13 260 19.3 38.6 0.00 0.00 0.00 76
20260905111714 12 250 22.5 38.6 0.00 0.00 0.00 82
20260905102131 12 250 19.3 35.4 0.00 0.00 0.00 81
20260905091738 12 240 22.5 0.0 0.00 0.00 0.00 87
20260905081714 12 250 14.5 0.0 0.00 0.00 0.00 87
20260905072025 10 250 19.3 0.0 0.00 0.00 0.00 93
20260905061715 8 240 14.5 0.0 0.00 0.00 0.00 93
20260905051714 7 250 14.5 0.0 0.00 0.00 0.00 99
20260905042115 8 290 14.5 35.4 0.00 0.00 0.00 81
20260905031714 12 280 8.0 0.0 0.00 0.00 0.00 87